Flag for Germany Weather past 2 weeks in Schönebeck, Saxony-Anhalt, Germany

Now
76 °F

Scattered clouds.


Feels Like: 78 °F
Forecast: 63 / 78 °F
Wind: 2 mph from East

Location: Magdeburg

Current Time: Jul 5, 2015 at 9:06:05 AM

Latest Report: Jul 5, 2015 at 8:00 AM


Visibility: 19 mi

Pressure: 30.08 "Hg

Humidity: 72%

Dew point: 67 °F

Location of SchönebeckLocation

Historic Weather in Schönebeck — Graph

°F

Schönebeck temperature yesterday

Maximum temperature yesterday: 100 °F (at 4:00 PM)
Minimum temperature yesterday: 67 °F (at 6:00 AM)
Average temperature yesterday: 84 °F

Past Weeks' High & Low Weather Summary

 TemperatureHumidityPressure
High100 °F (Jul 4, 4:00 PM)96% (Jun 23, 6:00 AM)30.25 "Hg (Jun 23, 6:00 AM)
Low48 °F (Jun 21, 4:00 AM)26% (Jul 2, 5:00 PM)29.63 "Hg (Jun 23, 2:00 AM)
Average67 °F64%30.07 "Hg
* Reported Jun 20 7:00 AM — Jul 5 7:00 AM, Schönebeck, Weather by CustomWeather, © 2015

Note: Actual official high and low records may vary slightly from our data, if they occured in-between our weather recording intervals... More about our weather records

Advertising

Schönebeck weather history for previous 24 hours

 ConditionsComfort  
Time TempWeatherWind HumidityBarometerVisibility
7:00 AM
Sun, Jul 5
72 °FScattered clouds.1 mph78%30.08 "Hg16 mi
4:00 AM70 °FPassing clouds.1 mph82%30.05 "Hg11 mi
3:00 AM73 °FPassing clouds.1 mph74%30.09 "Hg13 mi
2:00 AM74 °FPassing clouds.2 mph71%30.08 "Hg16 mi
1:00 AM74 °FPassing clouds.1 mph71%30.06 "Hg19 mi
12:00 AM79 °FOvercast.5 mph54%30.05 "Hg28 mi
10:00 PM
Sat, Jul 4
78 °FDrizzle. Overcast.7 mph67%30.06 "Hg16 mi
9:00 PM87 °FOvercast.5 mph45%30.03 "Hg16 mi
8:00 PM93 °FScattered clouds.1 mph38%30.01 "Hg17 mi
7:00 PM98 °FSunny.2 mph31%30.01 "Hg17 mi
6:00 PM99 °FScattered clouds.2 mph29%30.02 "Hg15 mi
4:00 PM100 °FScattered clouds.3 mph29%30.04 "Hg19 mi
3:00 PM99 °FScattered clouds.3 mph31%30.06 "Hg19 mi
2:00 PM96 °FScattered clouds.2 mph33%30.06 "Hg19 mi
1:00 PM95 °FPartly sunny.2 mph37%30.09 "Hg16 mi
12:00 PM94 °FScattered clouds.2 mph42%30.10 "Hg16 mi
11:00 AM90 °FScattered clouds.2 mph44%30.11 "Hg10 mi
10:00 AM86 °FPassing clouds.2 mph53%30.12 "Hg9 mi
9:00 AM81 °FSunny.2 mph62%30.13 "Hg9 mi
Weather by CustomWeather, © 2015

See weather overviewHow to use our weather pages